Regional Weather Roundup
Issued by NWS State College, PA

Home | Current Version | Previous Version | Text Only | Print | Product List | Glossary Off
Versions: 1 2 3 4 5 6 7 8 9 10 11 12 13 14 15 16 17 18 19 20 21 22 23 24 25 26 27 28 29 30 31 32 33 34 35 36 37 38 39 40 41 42 43 44 45 46 47 48 49 50

000
ASUS41 KCTP 061010
RWRCTP

REGIONAL WEATHER ROUNDUP
NATIONAL WEATHER SERVICE STATE COLLEGE PA
600 AM EDT MON JUL 06 2015

Note: "fair" indicates few or no clouds below 12,000 feet with no
significant weather and/or obstructions to visibility.

* = STATION THAT DOES NOT REPORT PRECIPITATION /E.G. RAIN...SNOW...ETC/
    THUNDER OR FOG.

PAZ002>004-007>009-013>016-020>023-029>032-061100-
WESTERN PENNSYLVANIA

CITY           SKY/WX    TMP DP  RH WIND       PRES   REMARKS
ERIE           MOCLDY    68  60  75 S9        30.06S
MEADVILLE      PTCLDY    66  60  81 CALM      30.10R
FRANKLIN*      CLOUDY    63  57  82 E3        30.12R
NEW CASTLE     FAIR      65  64  96 CALM      30.10R
BEAVER COUNTY  NOT AVBL
BUTLER*        MOCLDY    66  64  94 SE7       30.10S
PITTSBURGH INT CLOUDY    71  67  87 E5        30.06F
PITTSBURGH     CLOUDY    70  64  81 CALM      30.07S
INDIANA*       CLOUDY    68  68 100 CALM      30.14R FOG
LATROBE        NOT AVBL
WASHINGTON CO* NOT AVBL
$$

PAZ004>006-010>012-017>019-024>028-033>037-041-042-045-046-049>053-061100-
CENTRAL PENNSYLVANIA

CITY           SKY/WX    TMP DP  RH WIND       PRES   REMARKS
BRADFORD       PTCLDY    56  54  93 SE5       30.16R FOG
DUBOIS         CLOUDY    64  61  90 E7        30.13R
CLEARFIELD     CLOUDY    63  60  90 NE8       30.14S
JOHNSTOWN      CLOUDY    67  64  90 SE8       30.14S
ALTOONA        CLOUDY    67  65  93 CALM      30.14R
STATE COLLEGE  MOCLDY    64  63  94 CALM      30.13S FOG
WILLIAMSPORT   CLOUDY    65  61  87 VRB3      30.13R
SELINSGROVE    CLOUDY    66  64  93 CALM      30.14S FOG
FT INDIANTOWN  CLOUDY    67  66  96 NE2       30.14R
CAPITAL CITY   LGT RAIN  70  67  90 E3        30.13R FOG
HARRISBURG     LGT RAIN  70  67  90 CALM      30.12R
YORK           CLOUDY    71  69  93 E5        30.13R
$$

PAZ038>040-043-044-047-048-054-055-060>062-067>071-061100-
EASTERN PENNSYLVANIA

CITY           SKY/WX    TMP DP  RH WIND       PRES   REMARKS
SCRANTON       MOCLDY    62  58  86 E6        30.16S
MOUNT POCONO   CLOUDY    58  55  90 CALM      30.20S
ALLENTOWN      CLOUDY    66  63  90 NE3       30.15S FOG
QUAKERTOWN*    CLOUDY    64  64 100 CALM      30.17R
READING        MOCLDY    68  65  90 CALM      30.13R
LANCASTER      CLOUDY    69  67  93 E5        30.13S FOG
COATESVILLE    CLOUDY    68  68 100 E5        30.16S FOG
POTTSTOWN      CLOUDY    68  67  96 E3        30.16R
BLUE BELL      CLOUDY    68  68 100 CALM      30.15R
DOYLESTOWN     MOCLDY    65  65 100 CALM      30.15R
WILLOW GROVE   NOT AVBL
NORTH PHILA    MOCLDY    71  65  81 CALM      30.16R
PHILADELPHIA   CLOUDY    72  68  87 E5        30.14S
$$



USA.gov is the U.S. government's official web portal to all federal, state and local government web resources and services.